Skip Page Navigation
NASA JPL Caltech
NASA Logo - Jet Propulsion Laboratory + View the NASA Portal
+ Near-Earth Object (NEO) Program
Search JPL
JPL Home Earth Solar System Stars & Galaxies Technology
JPL Solar System Dynamics
BODIES ORBITS EPHEMERIDES TOOLS PHYSICAL DATA DISCOVERY FAQ SITE MAP
JPL Small-Body Database Browser
Search: [ help ]  
(2005 UL5)
Classification: Aten [NEO, PHA]          SPK-ID: 3297356
Ephemeris | Orbit Diagram | Orbital Elements | Physical Parameters | Close-Approach Data ]

[ hide orbit diagram ]
Orbit Diagram
Note: Make sure you have Java enabled on your browser to see the applet. This applet is provided as a 3D orbit visualization tool. The applet was implemented using 2-body methods, and hence should not be used for determining accurate long-term trajectories (over several years or decades) or planetary encounter circumstances. For accurate long-term ephemerides, please instead use our Horizons system.
Orbit Viewer

Additional Notes: the orbits shown in the applet are color coded. The planets are white lines, and the asteroid/comet is a blue line. The bright white line indicates the portion of the orbit that is above the ecliptic plane, and the darker portion is below the ecliptic plane. Likewise for the asteroid/comet orbit, the light blue indicates the portion above the ecliptic plane, and the dark blue the portion below the ecliptic plane.

Orbit Viewer applet originally written and kindly provided by Osamu Ajiki (AstroArts), and further modified by Ron Baalke (JPL).


Orbital Elements at Epoch 2456400.5 (2013-Apr-18.0) TDB
Reference: JPL 19 (heliocentric ecliptic J2000)
 Element Value Uncertainty (1-sigma)   Units 
e .5696022837630672 1.6334e-06  
a .9372773150031086 1.0808e-07 AU
q .4034020158580222 1.4858e-06 AU
i 14.2966193612586 5.282e-05 deg
node 58.94246698379753 3.2804e-05 deg
peri 127.6449230960214 7.7875e-05 deg
M 350.0314920281601 0.00039865 deg
tp 2456409.677581406451
(2013-Apr-27.17758141)
0.0003686 JED
period 331.4366919959936
0.91
5.733e-05
1.57e-07
d
yr
n 1.086180283275189 1.8788e-07 deg/d
Q 1.471152614148195 1.6965e-07 AU
  Orbit Determination Parameters
   # obs. used (total)      118  
   data-arc span      2499 days (6.84 yr)  
   first obs. used      2005-10-27  
   last obs. used      2012-08-30  
   planetary ephem.      DE405  
   SB-pert. ephem.      SB405-CPV-2  
   condition code      1  
   fit RMS      .52283  
   data source      ORB  
   producer      Otto Matic  
   solution date      2012-Aug-31 00:52:00  

Additional Information
 Earth MOID = .00586968 AU 
 T_jup = 6.228 
[ show covariance matrix ]

Ephemeris | Orbit Diagram | Orbital Elements | Physical Parameters | Close-Approach Data ]

Physical Parameter Table
Parameter Symbol Value Units Sigma Reference Notes
absolute magnitude H 20.038 mag .41303 19 autocmod 2.5b

[ show close-approach data ]
Ephemeris | Orbit Diagram | Orbital Elements | Physical Parameters | Close-Approach Data ]
ABOUT SSD CREDITS/AWARDS PRIVACY/COPYRIGHT GLOSSARY LINKS
FirstGov 2013-May-25 19:28 UT
(server date/time)  
NASA Home Page
Site Manager:   Donald K. Yeomans
Webmaster  Alan B. Chamberlin